Regional Weather Roundup
Issued by NWS Raleigh/Durham, NC

Home | Current Version | Previous Version | Text Only | Print | Product List | Glossary On
Versions: 1 2 3 4 5 6 7 8 9 10 11 12 13 14 15 16 17 18 19 20 21 22 23 24 25 26 27 28 29 30 31 32 33 34 35 36 37 38 39 40 41 42 43 44 45 46 47 48 49 50
000
ASUS42 KRAH 200510
RWRRAH
NORTH CAROLINA WEATHER ROUNDUP
NATIONAL WEATHER SERVICE RALEIGH NC
1200 AM EST SAT JAN 20 2018

NOTE: "FAIR" INDICATES FEW OR NO CLOUDS BELOW 12,000 FEET WITH NO
SIGNIFICANT WEATHER AND/OR OBSTRUCTIONS TO VISIBILITY.

NCZ001-053-055-056-065-067-200600-
WESTERN NORTH CAROLINA

CITY           SKY/WX    TMP DP  RH WIND       PRES   REMARKS
ASHEVILLE      FAIR      25  19  78 CALM      30.17S
JEFFERSON      FAIR      38 -14  10 W16       30.10S WCI  29
MORGANTON      FAIR      28  22  81 CALM      30.17F
HICKORY        FAIR      32  20  61 CALM      30.13F
RUTHERFORDTON  FAIR      28  20  72 CALM      30.16S
MOUNT AIRY     FAIR      28  18  66 CALM      30.15S
BOONE          FAIR      38 -13  11 W10       30.12S WCI  32
$$

NCZ021-022-025-041-071-084-088-200600-
CENTRAL NORTH CAROLINA

CITY           SKY/WX    TMP DP  RH WIND       PRES   REMARKS
CHARLOTTE      FAIR      38  22  52 SE3       30.17S
GREENSBORO     FAIR      32  20  61 SW8       30.12F WCI  25
WINSTON-SALEM  FAIR      31  17  56 CALM      30.14F
RALEIGH-DURHAM FAIR      33  24  69 CALM      30.15F
FORT BRAGG     FAIR      28  25  89 CALM      30.16F
FAYETTEVILLE   FAIR      31  25  78 SW3       30.17F
BURLINGTON     FAIR      26  21  81 CALM      30.13F
LAURINBURG     FAIR      26  24  92 W3        30.19F
$$

NCZ011-015-027-028-043-044-047-080-103-200600-
NORTHEASTERN NORTH CAROLINA

CITY           SKY/WX    TMP DP  RH WIND       PRES   REMARKS
ROCKY MT-WILSO NOT AVBL
GREENVILLE     FAIR      32  25  74 SW3       30.17F
WASHINGTON     FAIR      34  25  69 CALM      30.17S
ELIZABETH CITY FAIR      36  28  73 SW8       30.13F WCI  30
MANTEO         FAIR      36  30  79 CALM      30.15F
CAPE HATTERAS  FAIR      46  35  65 W7        30.17F
$$

NCZ078-087-090-091-093-098-101-200600-
SOUTHEASTERN NORTH CAROLINA

CITY           SKY/WX    TMP DP  RH WIND       PRES   REMARKS
LUMBERTON      FAIR      28  25  88 CALM      30.19S
GOLDSBORO      FAIR      33  25  73 CALM      30.15F
KINSTON        FAIR      31  26  78 SW5       30.18F WCI  27
KENANSVILLE    FAIR      27  23  86 CALM      30.18F
NEW BERN       FAIR      39  27  62 SW5       30.19F
CHERRY POINT   NOT AVBL
BEAUFORT       FAIR      42  35  76 SW8       30.19F
JACKSONVILLE   FAIR      39  30  70 SW5       30.19F
WILMINGTON     FAIR      38  34  85 SW6       30.20F WCI  33
$$




USA.gov is the U.S. government's official web portal to all federal, state and local government web resources and services.